When you browse on this site, cookies collect data to enhance your experience and personalize the content and advertising you see.
Visit our Privacy Policy to learn more. By continuing to use the site, you agree to this use of cookies and data.
  • în România
  • Lista ţărilor
  • Pe 7 zile
  • Temperatura apei
  • Meteo pe hartă
  • Widget-uri
  • user-avatar
    Intrare

    Meteo pe oră la Polkowice

    Astăzi, 6 Decembrie, Vineri

    Timp Temperatura Precipitaţii Vânt Presiune Umiditate
    00:00 -2°C° 0 mm 3 m/s 748 mmHg 66%
    01:00 -2°C° 0 mm 3 m/s 748 mmHg 64%
    02:00 -1°C° 0 mm 3 m/s 748 mmHg 62%
    03:00 -1°C° 0 mm 3 m/s 747 mmHg 61%
    04:00 -1°C° 0 mm 3 m/s 747 mmHg 59%
    05:00 -1°C° 0 mm 3 m/s 747 mmHg 58%
    06:00 -1°C° 0 mm 3 m/s 746 mmHg 57%
    07:00 -2°C° 0 mm 4 m/s 746 mmHg 56%
    08:00 -1°C° 0 mm 4 m/s 746 mmHg 51%
    09:00 0°C° 0 mm 4 m/s 746 mmHg 47%
    10:00 +1°C° 0 mm 4 m/s 745 mmHg 43%
    11:00 +3°C° 0 mm 4 m/s 745 mmHg 41%
    12:00 +3°C° 0 mm 5 m/s 745 mmHg 40%
    13:00 +5°C° 0 mm 5 m/s 745 mmHg 38%
    14:00 +4°C° 0 mm 4 m/s 744 mmHg 42%
    15:00 +1°C° 0 mm 4 m/s 744 mmHg 46%
    16:00 0°C° 0 mm 4 m/s 743 mmHg 50%
    17:00 0°C° 0 mm 4 m/s 743 mmHg 49%
    18:00 0°C° 0 mm 4 m/s 743 mmHg 49%
    19:00 0°C° 0 mm 4 m/s 743 mmHg 48%
    20:00 +1°C° 0 mm 4 m/s 742 mmHg 48%
    21:00 +1°C° 0 mm 4 m/s 742 mmHg 49%
    22:00 +1°C° 0 mm 5 m/s 742 mmHg 49%
    23:00 +2°C° 0 mm 5 m/s 741 mmHg 51%

    Mâine, 7 Decembrie, Sâmbătă

    Timp Temperatura Precipitaţii Vânt Presiune Umiditate
    00:00 +2°C° 0 mm 5 m/s 741 mmHg 54%
    01:00 +2°C° 0 mm 5 m/s 740 mmHg 56%
    02:00 +2°C° 0 mm 5 m/s 740 mmHg 59%
    03:00 +2°C° 0 mm 6 m/s 739 mmHg 63%
    04:00 +2°C° 0 mm 6 m/s 739 mmHg 67%
    05:00 +3°C° 0.1 mm 6 m/s 739 mmHg 70%
    06:00 +3°C° 0.1 mm 6 m/s 739 mmHg 74%
    07:00 +4°C° 0.1 mm 6 m/s 739 mmHg 77%
    08:00 +4°C° 0 mm 7 m/s 739 mmHg 77%
    09:00 +4°C° 0 mm 7 m/s 739 mmHg 77%
    10:00 +5°C° 0 mm 7 m/s 739 mmHg 77%
    11:00 +5°C° 0.6 mm 7 m/s 739 mmHg 80%
    12:00 +5°C° 0.6 mm 8 m/s 739 mmHg 82%
    13:00 +5°C° 0.6 mm 8 m/s 739 mmHg 85%
    14:00 +5°C° 0.3 mm 8 m/s 739 mmHg 83%
    15:00 +5°C° 0.3 mm 7 m/s 740 mmHg 82%
    16:00 +5°C° 0.3 mm 7 m/s 740 mmHg 81%
    17:00 +5°C° 0 mm 7 m/s 740 mmHg 80%
    18:00 +5°C° 0 mm 7 m/s 741 mmHg 80%
    19:00 +5°C° 0 mm 7 m/s 741 mmHg 79%
    20:00 +5°C° 0.3 mm 7 m/s 741 mmHg 82%
    21:00 +5°C° 0.3 mm 7 m/s 742 mmHg 84%
    22:00 +5°C° 0.3 mm 7 m/s 742 mmHg 86%
    23:00 +5°C° 0.4 mm 7 m/s 742 mmHg 85%

    Poimâine, 8 Decembrie, Duminică

    Timp Temperatura Precipitaţii Vânt Presiune Umiditate
    00:00 +5°C° 0.4 mm 6 m/s 742 mmHg 83%
    01:00 +5°C° 0.4 mm 6 m/s 742 mmHg 82%
    02:00 +5°C° 0.1 mm 6 m/s 742 mmHg 82%
    03:00 +5°C° 0.1 mm 6 m/s 742 mmHg 83%
    04:00 +4°C° 0.1 mm 6 m/s 742 mmHg 83%
    05:00 +4°C° 0 mm 6 m/s 742 mmHg 82%
    06:00 +5°C° 0 mm 5 m/s 742 mmHg 81%
    07:00 +5°C° 0 mm 5 m/s 742 mmHg 80%
    08:00 +5°C° 0 mm 5 m/s 741 mmHg 78%
    09:00 +4°C° 0 mm 6 m/s 741 mmHg 76%
    10:00 +4°C° 0 mm 6 m/s 741 mmHg 73%
    11:00 +5°C° 0 mm 6 m/s 740 mmHg 71%
    12:00 +5°C° 0 mm 6 m/s 739 mmHg 69%
    13:00 +7°C° 0 mm 6 m/s 739 mmHg 67%
    14:00 +7°C° 0.1 mm 6 m/s 738 mmHg 70%
    15:00 +5°C° 0.1 mm 6 m/s 737 mmHg 74%
    16:00 +5°C° 0.1 mm 6 m/s 737 mmHg 77%
    17:00 +7°C° 0.1 mm 6 m/s 736 mmHg 78%
    18:00 +7°C° 0.1 mm 6 m/s 736 mmHg 78%
    19:00 +7°C° 0.1 mm 6 m/s 736 mmHg 79%
    20:00 +7°C° 0 mm 6 m/s 735 mmHg 79%
    21:00 +7°C° 0 mm 5 m/s 735 mmHg 79%
    22:00 +7°C° 0 mm 5 m/s 735 mmHg 80%
    23:00 +7°C° 0.2 mm 5 m/s 735 mmHg 79%

    9 Decembrie, Luni

    Timp Temperatura Precipitaţii Vânt Presiune Umiditate
    00:00 +7°C° 0.2 mm 5 m/s 734 mmHg 79%
    01:00 +7°C° 0.2 mm 5 m/s 734 mmHg 79%
    02:00 +6°C° 0.1 mm 5 m/s 734 mmHg 78%
    03:00 +6°C° 0.1 mm 5 m/s 733 mmHg 77%
    04:00 +6°C° 0.1 mm 5 m/s 733 mmHg 77%
    05:00 +5°C° 0 mm 5 m/s 733 mmHg 77%
    06:00 +5°C° 0 mm 5 m/s 733 mmHg 78%
    07:00 +3°C° 0 mm 5 m/s 733 mmHg 78%
    08:00 +5°C° 0 mm 5 m/s 733 mmHg 78%
    09:00 +5°C° 0 mm 4 m/s 733 mmHg 77%
    10:00 +5°C° 0 mm 4 m/s 732 mmHg 76%
    11:00 +6°C° 0 mm 5 m/s 732 mmHg 72%
    12:00 +6°C° 0 mm 5 m/s 732 mmHg 68%
    13:00 +7°C° 0 mm 6 m/s 731 mmHg 63%
    14:00 +6°C° 0 mm 5 m/s 731 mmHg 67%
    15:00 +6°C° 0 mm 5 m/s 731 mmHg 72%
    16:00 +5°C° 0 mm 4 m/s 731 mmHg 76%
    17:00 +5°C° 0.2 mm 5 m/s 731 mmHg 78%
    18:00 +3°C° 0.2 mm 5 m/s 730 mmHg 81%
    19:00 +3°C° 0.2 mm 5 m/s 730 mmHg 83%
    20:00 +3°C° 0.1 mm 6 m/s 731 mmHg 83%
    21:00 +3°C° 0.1 mm 6 m/s 731 mmHg 83%
    22:00 +2°C° 0.1 mm 6 m/s 731 mmHg 83%
    23:00 +2°C° 0.1 mm 7 m/s 731 mmHg 84%

    10 Decembrie, Marţi

    Timp Temperatura Precipitaţii Vânt Presiune Umiditate
    00:00 +3°C° 0.1 mm 7 m/s 731 mmHg 84%
    01:00 +3°C° 0.1 mm 7 m/s 732 mmHg 85%
    02:00 +3°C° 0.3 mm 6 m/s 732 mmHg 86%
    03:00 +3°C° 0.3 mm 6 m/s 733 mmHg 87%
    04:00 +3°C° 0.3 mm 6 m/s 733 mmHg 88%
    05:00 +3°C° 0.3 mm 6 m/s 734 mmHg 87%
    06:00 +3°C° 0.3 mm 6 m/s 734 mmHg 86%
    07:00 +3°C° 0.3 mm 5 m/s 735 mmHg 85%
    08:00 +3°C° 0.1 mm 6 m/s 736 mmHg 83%
    09:00 +3°C° 0.1 mm 6 m/s 737 mmHg 80%
    10:00 +3°C° 0.1 mm 7 m/s 739 mmHg 78%
    11:00 +2°C° 0.3 mm 7 m/s 740 mmHg 83%
    12:00 +2°C° 0.3 mm 7 m/s 741 mmHg 87%
    13:00 0°C° 0.3 mm 8 m/s 742 mmHg 92%
    14:00 0°C° 0.3 mm 7 m/s 743 mmHg 83%
    15:00 -1°C° 0.3 mm 7 m/s 744 mmHg 74%
    16:00 -1°C° 0.3 mm 6 m/s 746 mmHg 65%
    17:00 -1°C° 0 mm 5 m/s 747 mmHg 66%
    18:00 -2°C° 0 mm 5 m/s 747 mmHg 67%
    19:00 -2°C° 0 mm 4 m/s 748 mmHg 69%
    20:00 -2°C° 0 mm 3 m/s 749 mmHg 70%
    21:00 -2°C° 0 mm 3 m/s 749 mmHg 72%
    22:00 -2°C° 0 mm 3 m/s 749 mmHg 73%
    23:00 -2°C° 0 mm 3 m/s 749 mmHg 74%

    11 Decembrie, Miercuri

    Timp Temperatura Precipitaţii Vânt Presiune Umiditate
    00:00 -2°C° 0 mm 2 m/s 749 mmHg 74%
    01:00 -2°C° 0 mm 2 m/s 748 mmHg 75%
    02:00 -2°C° 0 mm 3 m/s 748 mmHg 71%
    03:00 -2°C° 0 mm 3 m/s 747 mmHg 68%
    04:00 -3°C° 0 mm 4 m/s 746 mmHg 64%
    05:00 -3°C° 0 mm 4 m/s 745 mmHg 62%
    06:00 -2°C° 0 mm 4 m/s 745 mmHg 61%
    07:00 -2°C° 0 mm 4 m/s 744 mmHg 59%
    08:00 -1°C° 0.1 mm 4 m/s 743 mmHg 66%
    09:00 -1°C° 0.1 mm 4 m/s 743 mmHg 73%
    10:00 -1°C° 0.1 mm 5 m/s 742 mmHg 81%
    11:00 -1°C° 0.6 mm 5 m/s 742 mmHg 85%
    12:00 -1°C° 0.6 mm 5 m/s 741 mmHg 90%
    13:00 -1°C° 0.6 mm 5 m/s 740 mmHg 94%
    14:00 -1°C° 0.5 mm 5 m/s 740 mmHg 94%
    15:00 -1°C° 0.5 mm 5 m/s 740 mmHg 95%
    16:00 -1°C° 0.5 mm 5 m/s 740 mmHg 95%
    17:00 0°C° 0.2 mm 5 m/s 740 mmHg 94%
    18:00 0°C° 0.2 mm 5 m/s 740 mmHg 93%
    19:00 +1°C° 0.2 mm 4 m/s 740 mmHg 92%
    20:00 0°C° 0.1 mm 4 m/s 740 mmHg 89%
    21:00 0°C° 0.1 mm 4 m/s 740 mmHg 86%
    22:00 0°C° 0.1 mm 4 m/s 741 mmHg 83%
    23:00 0°C° 0 mm 4 m/s 740 mmHg 82%
    Arată mai mult